Location: Gönnheim
(49.4488°N, 8.2383°E)
Time: 16:13:42
(UTC+00:00)

USA 229 DEB - Pass Details

Date: 19 May 2025
Orbit: 872 x 1339 km, 63.4° (Epoch: 14 June)

Event Time Altitude Azimuth Distance (km) Brightness Sun altitude
Exits shadow 23:20:44 33° 208° (SSW) 1,528 4.1 -20.6°
Maximum altitude 23:23:39 77° 128° (SE) 1,012 3.4 -20.6°
Drops below altitude 10° 23:30:26 10° 44° (NE) 2,910 6.6 -20.5°
Sets 23:33:15 0° 43° (NE) 3,942 7.4 -20.5°
